Weather History for CWZG - December, 2011

Change the Weather History Date:

Friday, December 9, 2011

  Actual Average Record
Temperature  
Mean Temperature 17 °F -  
Max Temperature 22 °F - - ()
Min Temperature 12 °F - - ()
Degree Days  
Heating Degree Days 48    
Moisture  
Dew Point 9 °F    
Average Humidity 74    
Maximum Humidity 81    
Minimum Humidity 60    
Precipitation  
Precipitation 0.22 in - - ()
Sea Level Pressure  
Sea Level Pressure 30.37 in    
Wind  
Wind Speed 8 mph ()    
Max Wind Speed 16 mph    
Max Gust Speed 25 mph    
T = Trace of Precipitation, MM = Missing Value Source: Averaged Metar Reports

Daily Weather History Graph

Daily Weather History Graph

Search for Another Location

Airport or City:

Trip Planner

Search our weather history database for the weather conditions in past years. The results will help you decide how hot, cold, wet, or windy it might be!

Date:

Astronomy

Dec. 09, 2011 Rise Set
Actual Time 8:33 AM MST 4:34 PM MST
Civil Twilight 7:54 AM MST 5:14 PM MST
Nautical Twilight 7:12 AM MST 5:56 PM MST
Astronomical Twilight 6:31 AM MST 6:37 PM MST
Moon 4:00 PM MST (12/9) 7:46 AM MST (12/9)
Length of Visible Light 9h 19m
Length of Day
8h 00m
Waxing Gibbous, 99% of the Moon is Illuminated
Dec 9
Waxing Gibbous
Dec 10
Full
Dec 17
Last Quarter
Dec 24
New
Dec 31
First Quarter

Hourly Weather History & Observations

Time (MST) Temp. Windchill Dew Point Humidity Pressure Visibility Wind Dir Wind Speed Gust Speed Precip Events Conditions
12:00 AM 15.4 °F 4.6 °F 8.8 °F 75% 30.33 in - WSW 8.1 mph - N/A   Unknown
1:00 AM 14.4 °F 3.3 °F 8.1 °F 76% 30.34 in - SW 8.1 mph - N/A   Unknown
2:00 AM 15.1 °F 4.2 °F 8.4 °F 75% 30.33 in - WSW 8.1 mph - N/A   Unknown
3:00 AM 14.4 °F 4.3 °F 8.2 °F 77% 30.35 in - WSW 6.9 mph 17.3 mph N/A   Unknown
4:00 AM 13.3 °F 4.2 °F 7.9 °F 79% 30.36 in - West 5.8 mph - N/A   Unknown
6:00 AM 12.9 °F 1.6 °F 7.5 °F 79% 30.39 in - WSW 8.1 mph - N/A   Unknown
7:00 AM 12.6 °F 3.4 °F 7.5 °F 80% 30.39 in - West 5.8 mph - N/A   Unknown
8:00 AM 12.4 °F 6.3 °F 7.5 °F 81% 30.41 in - South 3.5 mph - N/A   Unknown
9:00 AM 12.7 °F 0.4 °F 7.5 °F 80% 30.42 in - WSW 9.2 mph - N/A   Unknown
10:00 AM 12.7 °F 5.0 °F 7.2 °F 78% 30.44 in - WSW 4.6 mph - N/A   Unknown
11:00 AM 15.6 °F 4.0 °F 7.0 °F 69% 30.43 in - WSW 9.2 mph - N/A   Unknown
12:00 PM 18.5 °F 3.8 °F 9.0 °F 66% 30.41 in - SW 16.1 mph 25.3 mph N/A   Unknown
1:00 PM 20.3 °F 6.6 °F 9.3 °F 63% 30.39 in - SW 15.0 mph 21.9 mph N/A   Unknown
2:00 PM 22.5 °F 11.7 °F 10.4 °F 60% 30.36 in - SW 10.4 mph - N/A   Unknown
3:00 PM 22.6 °F 10.7 °F 11.7 °F 63% 30.34 in - SW 12.7 mph 19.6 mph N/A   Unknown
4:00 PM 21.9 °F 10.4 °F 12.4 °F 67% 30.36 in - SW 11.5 mph - N/A   Unknown
5:00 PM 20.3 °F 10.6 °F 12.0 °F 70% 30.37 in - WSW 8.1 mph - N/A   Unknown
6:00 PM 19.6 °F 10.6 °F 12.0 °F 72% 30.38 in - WSW 6.9 mph - N/A   Unknown
7:00 PM 18.3 °F 7.3 °F 11.3 °F 74% 30.38 in - WSW 9.2 mph - N/A   Unknown
8:00 PM 16.5 °F 3.6 °F 10.6 °F 77% 30.38 in - WSW 11.5 mph 19.6 mph N/A   Unknown
9:00 PM 15.1 °F 3.3 °F 9.7 °F 79% 30.36 in - WSW 9.2 mph - N/A   Unknown
10:00 PM 14.2 °F 3.1 °F 9.3 °F 81% 30.32 in - SW 8.1 mph - N/A   Unknown
11:00 PM 14.4 °F 1.6 °F 9.1 °F 80% 30.29 in - WSW 10.4 mph 18.4 mph N/A   Unknown